TVS1061 EGBB-GCXO

Flight info

Callsign TVS1061
Flight time 3h 56m
Altitude 34000
Route HON DCT KIDLI DCT DIGUT DCT CPT DCT NUBRI DCT PEPIS DCT SAM DCT NEDUL DCT THRED DCT ORTAC/N0453F350 DCT DOMOK DCT BASIK DCT QPR DCT EBOMO DCT KEREB DCT COQUE DCT KOLEK DCT KORUL DCT KORAV DCT STG DCT ASDEB DCT TURON DCT PINEK DCT PRT DCT MANIK DCT FTM DCT ESP DCT LIGRA DCT BEXAL DCT KUBIL DCT D295R DCT D295P DCT CF12 DCT CD116 DCT FD116 DCT MD116
Aircraft B38M/M-SDE1FGHILORVWXY/HB1

Departure

Time 2026-04-26 10:12
Airport Birmingham Airport (EGBB)

Arrival

Time 2026-04-26 14:09
Airport Tenerife Norte-Ciudad de La Laguna Airport (GCXO)
Time Latitude Longitude Altitude Speed Heading
2026-04-26 09:35 52.45315 -1.73714 326 ft 0 kts 146°
2026-04-26 10:05 52.45327 -1.73728 322 ft 3 kts 146°
2026-04-26 10:05 52.45342 -1.73744 325 ft 2 kts 146°
2026-04-26 10:05 52.45356 -1.73760 325 ft 2 kts 146°
2026-04-26 10:06 52.45363 -1.73768 322 ft 0 kts 146°
2026-04-26 10:08 52.45362 -1.73767 326 ft 0 kts 162°
2026-04-26 10:08 52.45359 -1.73773 326 ft 1 kts 229°
2026-04-26 10:09 52.45358 -1.73811 324 ft 9 kts 265°
2026-04-26 10:09 52.45321 -1.73959 325 ft 19 kts 240°
2026-04-26 10:09 52.45360 -1.74194 324 ft 27 kts 296°
2026-04-26 10:09 52.45462 -1.74527 324 ft 38 kts 303°
2026-04-26 10:10 52.45702 -1.74824 315 ft 50 kts 326°
2026-04-26 10:10 52.46017 -1.75177 307 ft 60 kts 325°
2026-04-26 10:10 52.46364 -1.75557 306 ft 34 kts 326°
2026-04-26 10:10 52.46572 -1.75795 309 ft 31 kts 324°
2026-04-26 10:11 52.46611 -1.75998 307 ft 20 kts 225°
2026-04-26 10:11 52.46521 -1.76061 309 ft 14 kts 155°
2026-04-26 10:11 52.46341 -1.75862 312 ft 63 kts 146°
2026-04-26 10:11 52.45775 -1.75230 325 ft 131 kts 146°
2026-04-26 10:12 52.44887 -1.74219 515 ft 169 kts 144°
2026-04-26 10:12 52.43883 -1.72965 1132 ft 190 kts 141°
2026-04-26 10:12 52.42847 -1.71604 2144 ft 191 kts 147°
2026-04-26 10:12 52.41705 -1.70446 3122 ft 195 kts 152°
2026-04-26 10:13 52.40392 -1.69739 3849 ft 200 kts 168°
2026-04-26 10:13 52.39039 -1.69230 4660 ft 201 kts 165°
2026-04-26 10:13 52.37682 -1.68492 5380 ft 213 kts 156°
2026-04-26 10:13 52.36275 -1.67388 5689 ft 232 kts 155°
2026-04-26 10:14 52.34798 -1.66269 5740 ft 237 kts 159°
2026-04-26 10:14 52.33258 -1.65269 5928 ft 243 kts 159°
2026-04-26 10:14 52.31623 -1.64212 5959 ft 259 kts 161°
2026-04-26 10:14 52.29888 -1.63270 5965 ft 266 kts 163°
2026-04-26 10:15 52.28090 -1.62447 6731 ft 265 kts 166°
2026-04-26 10:15 52.26270 -1.61786 7569 ft 272 kts 169°
2026-04-26 10:15 52.24426 -1.60860 8278 ft 279 kts 159°
2026-04-26 10:15 52.22601 -1.59754 9131 ft 282 kts 161°
2026-04-26 10:16 52.20733 -1.58691 9943 ft 286 kts 162°
2026-04-26 10:16 52.18838 -1.57654 10741 ft 290 kts 163°
2026-04-26 10:16 52.16930 -1.56632 11492 ft 292 kts 163°
2026-04-26 10:16 52.14986 -1.55606 12247 ft 296 kts 163°
2026-04-26 10:17 52.13015 -1.54577 13036 ft 297 kts 164°
2026-04-26 10:17 52.11029 -1.53544 13740 ft 302 kts 164°
2026-04-26 10:17 52.09050 -1.52519 14439 ft 305 kts 164°
2026-04-26 10:17 52.07017 -1.51469 15087 ft 308 kts 164°
2026-04-26 10:18 52.04962 -1.50405 15731 ft 312 kts 164°
2026-04-26 10:18 52.02877 -1.49330 16371 ft 316 kts 164°
2026-04-26 10:18 52.00774 -1.48245 17011 ft 319 kts 164°
2026-04-26 10:18 51.98648 -1.47150 17621 ft 322 kts 165°
2026-04-26 10:19 51.96501 -1.46046 18252 ft 325 kts 165°
2026-04-26 10:19 51.94332 -1.44932 18796 ft 329 kts 165°
2026-04-26 10:19 51.92139 -1.43806 19336 ft 332 kts 165°
2026-04-26 10:19 51.89927 -1.42672 19841 ft 335 kts 165°
2026-04-26 10:20 51.87698 -1.41530 20360 ft 338 kts 165°
2026-04-26 10:20 51.86180 -1.40753 20677 ft 340 kts 165°
2026-04-26 10:20 51.83184 -1.39220 21316 ft 345 kts 165°
2026-04-26 10:20 51.80858 -1.38031 21511 ft 357 kts 165°
2026-04-26 10:21 51.78433 -1.36794 21585 ft 373 kts 165°
2026-04-26 10:21 51.75913 -1.35511 21635 ft 388 kts 165°
2026-04-26 10:21 51.73284 -1.34173 21675 ft 403 kts 165°
2026-04-26 10:21 51.70566 -1.32791 21703 ft 417 kts 165°
2026-04-26 10:22 51.67750 -1.31361 21759 ft 431 kts 165°
2026-04-26 10:22 51.64844 -1.29888 21872 ft 442 kts 165°
2026-04-26 10:22 51.61917 -1.28407 22416 ft 442 kts 165°
2026-04-26 10:22 51.59970 -1.27422 22699 ft 444 kts 165°
2026-04-26 10:23 51.57012 -1.25928 23070 ft 448 kts 165°
2026-04-26 10:23 51.54025 -1.24421 23511 ft 450 kts 165°
2026-04-26 10:23 51.51019 -1.22920 23897 ft 453 kts 167°
2026-04-26 10:23 51.47917 -1.22243 24238 ft 450 kts 183°
2026-04-26 10:24 51.44792 -1.22425 24619 ft 451 kts 184°
2026-04-26 10:24 51.41643 -1.22624 24923 ft 454 kts 185°
2026-04-26 10:24 51.38480 -1.22853 25295 ft 455 kts 185°
2026-04-26 10:24 51.35311 -1.23102 25631 ft 458 kts 185°
2026-04-26 10:25 51.32120 -1.23359 25971 ft 459 kts 185°
2026-04-26 10:25 51.28925 -1.23618 26333 ft 461 kts 185°
2026-04-26 10:25 51.25713 -1.23878 26637 ft 463 kts 185°
2026-04-26 10:25 51.24628 -1.23966 26763 ft 464 kts 185°
2026-04-26 10:26 51.23314 -1.24073 26938 ft 463 kts 185°
2026-04-26 10:26 51.22214 -1.24161 27106 ft 463 kts 185°
2026-04-26 10:26 51.19151 -1.24622 27579 ft 457 kts 195°
2026-04-26 10:26 51.16132 -1.25903 28026 ft 454 kts 197°
2026-04-26 10:27 51.13069 -1.27166 28444 ft 454 kts 197°
2026-04-26 10:27 51.10021 -1.28435 28904 ft 452 kts 197°
2026-04-26 10:27 51.06988 -1.29707 29366 ft 451 kts 197°
2026-04-26 10:27 51.03962 -1.30975 29810 ft 449 kts 197°
2026-04-26 10:28 51.00941 -1.32241 30266 ft 448 kts 197°
2026-04-26 10:28 50.97939 -1.33497 30633 ft 447 kts 197°
2026-04-26 10:28 50.95050 -1.34858 30961 ft 443 kts 205°
2026-04-26 10:28 50.92246 -1.36837 31275 ft 442 kts 206°
2026-04-26 10:29 50.89435 -1.38804 31588 ft 442 kts 206°
2026-04-26 10:29 50.86630 -1.40772 31905 ft 441 kts 206°
2026-04-26 10:29 50.83824 -1.42742 32262 ft 440 kts 206°
2026-04-26 10:29 50.81023 -1.44706 32587 ft 439 kts 206°
2026-04-26 10:30 50.78234 -1.46661 32892 ft 439 kts 206°
2026-04-26 10:30 50.75443 -1.48613 33197 ft 438 kts 206°
2026-04-26 10:30 50.72659 -1.50557 33476 ft 438 kts 206°
2026-04-26 10:30 50.69869 -1.52504 33760 ft 437 kts 206°
2026-04-26 10:31 50.67090 -1.54441 34064 ft 437 kts 206°
2026-04-26 10:31 50.64309 -1.56376 34304 ft 437 kts 206°
2026-04-26 10:31 50.58764 -1.60228 34300 ft 435 kts 206°
2026-04-26 10:32 50.53226 -1.64065 34295 ft 435 kts 206°
2026-04-26 10:32 50.47721 -1.67870 34294 ft 435 kts 206°
2026-04-26 10:33 50.42179 -1.71689 34293 ft 435 kts 206°
2026-04-26 10:33 50.36636 -1.75500 34290 ft 435 kts 206°
2026-04-26 10:34 50.31085 -1.79307 34289 ft 435 kts 206°
2026-04-26 10:34 50.25541 -1.83099 34285 ft 435 kts 206°
2026-04-26 10:35 50.19988 -1.86887 34279 ft 435 kts 206°
2026-04-26 10:35 50.14438 -1.90664 34282 ft 435 kts 206°
2026-04-26 10:36 50.08889 -1.94431 34282 ft 435 kts 206°
2026-04-26 10:36 50.03346 -1.98185 34273 ft 434 kts 206°
2026-04-26 10:37 49.97654 -2.01326 34284 ft 437 kts 195°
2026-04-26 10:37 49.91729 -2.03489 34271 ft 438 kts 195°
2026-04-26 10:38 49.85798 -2.05654 34265 ft 438 kts 195°
2026-04-26 10:38 49.79870 -2.07809 34267 ft 437 kts 195°
2026-04-26 10:39 49.73991 -2.10007 34250 ft 436 kts 201°
2026-04-26 10:39 49.71308 -2.12075 34265 ft 430 kts 217°
2026-04-26 10:39 49.68843 -2.14719 34262 ft 432 kts 216°
2026-04-26 10:40 49.63921 -2.20056 34267 ft 433 kts 217°
2026-04-26 10:40 49.59023 -2.25477 34268 ft 434 kts 217°
2026-04-26 10:41 49.54126 -2.30912 34260 ft 434 kts 217°
2026-04-26 10:41 49.49212 -2.36353 34244 ft 435 kts 217°
2026-04-26 10:42 49.44303 -2.41778 34236 ft 436 kts 217°
2026-04-26 10:42 49.39373 -2.47210 34236 ft 436 kts 217°
2026-04-26 10:43 49.34444 -2.52627 34238 ft 436 kts 217°
2026-04-26 10:43 49.29504 -2.58044 34237 ft 437 kts 217°
2026-04-26 10:44 49.24557 -2.63454 34246 ft 437 kts 217°
2026-04-26 10:44 49.19600 -2.68862 34242 ft 437 kts 217°
2026-04-26 10:45 49.14643 -2.74257 34247 ft 438 kts 217°
2026-04-26 10:45 49.09709 -2.79612 34246 ft 439 kts 217°
2026-04-26 10:46 49.04726 -2.85007 34243 ft 440 kts 217°
2026-04-26 10:46 48.99729 -2.90406 34242 ft 440 kts 217°
2026-04-26 10:47 48.94796 -2.95921 34247 ft 439 kts 223°
2026-04-26 10:47 48.90136 -3.01965 34238 ft 440 kts 221°
2026-04-26 10:48 48.85433 -3.07927 34239 ft 440 kts 221°
2026-04-26 10:48 48.80716 -3.13873 34243 ft 441 kts 221°
2026-04-26 10:49 48.75995 -3.19807 34241 ft 441 kts 221°
2026-04-26 10:49 48.71272 -3.25729 34240 ft 441 kts 221°
2026-04-26 10:50 48.67339 -3.30649 34237 ft 441 kts 221°
2026-04-26 10:50 48.61801 -3.37560 34236 ft 442 kts 221°
2026-04-26 10:51 48.54677 -3.46419 34229 ft 442 kts 221°
2026-04-26 10:52 48.49960 -3.52266 34219 ft 442 kts 221°
2026-04-26 10:52 48.45202 -3.58150 34220 ft 442 kts 221°
2026-04-26 10:53 48.40444 -3.64018 34223 ft 442 kts 221°
2026-04-26 10:53 48.35676 -3.69884 34226 ft 442 kts 221°
2026-04-26 10:54 48.28526 -3.78654 34227 ft 442 kts 221°
2026-04-26 10:54 48.23757 -3.84487 34224 ft 442 kts 221°
2026-04-26 10:55 48.18984 -3.90308 34236 ft 443 kts 221°
2026-04-26 10:55 48.15018 -3.95134 34231 ft 443 kts 221°
2026-04-26 10:56 48.09423 -4.01925 34234 ft 443 kts 221°
2026-04-26 10:56 48.04631 -4.07729 34244 ft 443 kts 221°
2026-04-26 10:57 47.99828 -4.13533 34240 ft 444 kts 221°
2026-04-26 10:57 47.94981 -4.19149 34231 ft 445 kts 214°
2026-04-26 10:58 47.89736 -4.24103 34236 ft 447 kts 214°
2026-04-26 10:58 47.84468 -4.29048 34239 ft 447 kts 214°
2026-04-26 10:59 47.79191 -4.33958 34234 ft 448 kts 214°
2026-04-26 10:59 47.73902 -4.38857 34232 ft 448 kts 214°
2026-04-26 11:00 47.68606 -4.43752 34238 ft 448 kts 214°
2026-04-26 11:00 47.63307 -4.48638 34238 ft 449 kts 214°
2026-04-26 11:01 47.58004 -4.53519 34244 ft 449 kts 214°
2026-04-26 11:01 47.52726 -4.58365 34242 ft 449 kts 214°
2026-04-26 11:02 47.47415 -4.63231 34219 ft 449 kts 214°
2026-04-26 11:02 47.42098 -4.68091 34231 ft 450 kts 214°
2026-04-26 11:03 47.36770 -4.72949 34235 ft 450 kts 214°
2026-04-26 11:03 47.31444 -4.77794 34238 ft 450 kts 214°
2026-04-26 11:04 47.26117 -4.82627 34238 ft 450 kts 214°
2026-04-26 11:04 47.20787 -4.87452 34235 ft 450 kts 214°
2026-04-26 11:05 47.15450 -4.92272 34237 ft 450 kts 214°
2026-04-26 11:05 47.10121 -4.97075 34236 ft 450 kts 214°
2026-04-26 11:06 47.05696 -5.01070 34238 ft 449 kts 214°
2026-04-26 11:06 46.99475 -5.06683 34235 ft 449 kts 214°
2026-04-26 11:07 46.94147 -5.11478 34236 ft 449 kts 214°
2026-04-26 11:07 46.88850 -5.16233 34242 ft 449 kts 214°
2026-04-26 11:08 46.83523 -5.21003 34237 ft 449 kts 214°
2026-04-26 11:08 46.78187 -5.25770 34237 ft 449 kts 214°
2026-04-26 11:09 46.72858 -5.30521 34237 ft 449 kts 214°
2026-04-26 11:09 46.67530 -5.35259 34241 ft 449 kts 214°
2026-04-26 11:10 46.62199 -5.39991 34237 ft 448 kts 213°
2026-04-26 11:10 46.56864 -5.44696 34239 ft 449 kts 213°
2026-04-26 11:11 46.51524 -5.49397 34240 ft 448 kts 213°
2026-04-26 11:11 46.46188 -5.54084 34243 ft 449 kts 213°
2026-04-26 11:12 46.41748 -5.57975 34242 ft 448 kts 213°
2026-04-26 11:12 46.36406 -5.62648 34243 ft 448 kts 213°
2026-04-26 11:13 46.31069 -5.67304 34240 ft 448 kts 213°
2026-04-26 11:13 46.25729 -5.71954 34245 ft 448 kts 213°
2026-04-26 11:14 46.20383 -5.76597 34243 ft 448 kts 213°
2026-04-26 11:14 46.15044 -5.81224 34246 ft 448 kts 213°
2026-04-26 11:15 46.09700 -5.85844 34240 ft 448 kts 213°
2026-04-26 11:15 46.04355 -5.90455 34242 ft 448 kts 213°
2026-04-26 11:16 45.99010 -5.95055 34245 ft 448 kts 213°
2026-04-26 11:16 45.93658 -5.99652 34243 ft 448 kts 213°
2026-04-26 11:17 45.88306 -6.04237 34244 ft 448 kts 213°
2026-04-26 11:17 45.82951 -6.08815 34242 ft 448 kts 213°
2026-04-26 11:18 45.77601 -6.13378 34244 ft 448 kts 213°
2026-04-26 11:18 45.72240 -6.17939 34244 ft 448 kts 213°
2026-04-26 11:19 45.66884 -6.22488 34243 ft 447 kts 213°
2026-04-26 11:19 45.61566 -6.26992 34242 ft 448 kts 213°
2026-04-26 11:20 45.57105 -6.30764 34240 ft 447 kts 213°
2026-04-26 11:20 45.50845 -6.36044 34241 ft 447 kts 213°
2026-04-26 11:21 45.45482 -6.40557 34241 ft 447 kts 213°
2026-04-26 11:21 45.40117 -6.45062 34238 ft 447 kts 213°
2026-04-26 11:22 45.34756 -6.49553 34239 ft 447 kts 213°
2026-04-26 11:22 45.29391 -6.54038 34237 ft 447 kts 212°
2026-04-26 11:23 45.24029 -6.58510 34233 ft 447 kts 212°
2026-04-26 11:23 45.18676 -6.62963 34233 ft 446 kts 212°
2026-04-26 11:24 45.13312 -6.67418 34241 ft 446 kts 212°
2026-04-26 11:24 45.07952 -6.71859 34239 ft 446 kts 212°
2026-04-26 11:25 45.02626 -6.76262 34233 ft 446 kts 212°
2026-04-26 11:25 44.97263 -6.80687 34228 ft 446 kts 212°
2026-04-26 11:26 44.91899 -6.85105 34237 ft 446 kts 212°
2026-04-26 11:26 44.86539 -6.89509 34234 ft 446 kts 212°
2026-04-26 11:27 44.81177 -6.93898 34231 ft 445 kts 212°
2026-04-26 11:27 44.75864 -6.98240 34246 ft 434 kts 211°
2026-04-26 11:28 44.70699 -7.02454 34231 ft 427 kts 211°
2026-04-26 11:28 44.65552 -7.06643 34224 ft 428 kts 211°
2026-04-26 11:29 44.60401 -7.10827 34222 ft 428 kts 211°
2026-04-26 11:29 44.55244 -7.15008 34225 ft 428 kts 211°
2026-04-26 11:30 44.50953 -7.18481 34218 ft 428 kts 211°
2026-04-26 11:30 44.44916 -7.23354 34217 ft 429 kts 211°
2026-04-26 11:31 44.39777 -7.27495 34226 ft 429 kts 211°
2026-04-26 11:31 44.34605 -7.31654 34220 ft 429 kts 211°
2026-04-26 11:32 44.29427 -7.35809 34219 ft 429 kts 211°
2026-04-26 11:32 44.24251 -7.39954 34214 ft 429 kts 211°
2026-04-26 11:33 44.19076 -7.44088 34213 ft 429 kts 211°
2026-04-26 11:33 44.13895 -7.48220 34218 ft 429 kts 211°
2026-04-26 11:34 44.08711 -7.52345 34209 ft 429 kts 211°
2026-04-26 11:34 44.03524 -7.56465 34205 ft 430 kts 211°
2026-04-26 11:35 43.98327 -7.60584 34206 ft 430 kts 211°
2026-04-26 11:35 43.94005 -7.64003 34203 ft 431 kts 211°
2026-04-26 11:36 43.87946 -7.68787 34204 ft 431 kts 211°
2026-04-26 11:36 43.82734 -7.72894 34197 ft 431 kts 211°
2026-04-26 11:37 43.77509 -7.77001 34197 ft 431 kts 211°
2026-04-26 11:37 43.72289 -7.81098 34202 ft 432 kts 211°
2026-04-26 11:38 43.67057 -7.85197 34193 ft 432 kts 211°
2026-04-26 11:38 43.61828 -7.89280 34188 ft 432 kts 211°
2026-04-26 11:39 43.56654 -7.93313 34187 ft 432 kts 211°
2026-04-26 11:39 43.51360 -7.97432 34183 ft 432 kts 211°
2026-04-26 11:40 43.46121 -8.01502 34180 ft 432 kts 211°
2026-04-26 11:40 43.40888 -8.05557 34183 ft 432 kts 211°
2026-04-26 11:42 43.20277 -8.21454 34178 ft 434 kts 210°
2026-04-26 11:43 43.14971 -8.25525 34177 ft 434 kts 210°
2026-04-26 11:43 43.09725 -8.29544 34172 ft 435 kts 210°
2026-04-26 11:44 43.04435 -8.33587 34159 ft 436 kts 210°
2026-04-26 11:44 42.99136 -8.37630 34158 ft 436 kts 210°
2026-04-26 11:45 42.93804 -8.41600 34147 ft 437 kts 203°
2026-04-26 11:45 42.90875 -8.42686 34160 ft 439 kts 189°
2026-04-26 11:45 42.87837 -8.43238 34147 ft 441 kts 189°
2026-04-26 11:46 42.81744 -8.44307 34157 ft 442 kts 188°
2026-04-26 11:46 42.75632 -8.45310 34153 ft 443 kts 188°
2026-04-26 11:47 42.69512 -8.46302 34156 ft 443 kts 188°
2026-04-26 11:47 42.63386 -8.47292 34148 ft 444 kts 188°
2026-04-26 11:48 42.57245 -8.48283 34151 ft 444 kts 188°
2026-04-26 11:48 42.51106 -8.49271 34142 ft 444 kts 188°
2026-04-26 11:49 42.44963 -8.50257 34143 ft 445 kts 188°
2026-04-26 11:49 42.38812 -8.51242 34145 ft 445 kts 187°
2026-04-26 11:50 42.32659 -8.52226 34127 ft 445 kts 187°
2026-04-26 11:50 42.26507 -8.53208 34128 ft 445 kts 187°
2026-04-26 11:51 42.20352 -8.54188 34128 ft 445 kts 187°
2026-04-26 11:51 42.14199 -8.55166 34129 ft 445 kts 187°
2026-04-26 11:52 42.09083 -8.55979 34140 ft 445 kts 187°
2026-04-26 11:52 42.01926 -8.57115 34139 ft 445 kts 187°
2026-04-26 11:53 41.95734 -8.58097 34141 ft 445 kts 187°
2026-04-26 11:54 41.86541 -8.59552 34147 ft 445 kts 187°
2026-04-26 11:54 41.80385 -8.60519 34145 ft 445 kts 187°
2026-04-26 11:55 41.74233 -8.61483 34148 ft 445 kts 187°
2026-04-26 11:55 41.68082 -8.62446 34141 ft 445 kts 187°
2026-04-26 11:56 41.61931 -8.63407 34136 ft 445 kts 187°
2026-04-26 11:56 41.55778 -8.64367 34125 ft 445 kts 187°
2026-04-26 11:57 41.49638 -8.65322 34132 ft 444 kts 187°
2026-04-26 11:57 41.45137 -8.66022 34126 ft 444 kts 187°
2026-04-26 11:58 41.38995 -8.66974 34136 ft 444 kts 187°
2026-04-26 11:58 41.32857 -8.67925 34119 ft 444 kts 187°
2026-04-26 11:59 41.27754 -8.68674 34129 ft 444 kts 182°
2026-04-26 11:59 41.20592 -8.67933 34132 ft 445 kts 176°
2026-04-26 12:00 41.15426 -8.67306 34130 ft 444 kts 175°
2026-04-26 12:00 41.09310 -8.66549 34130 ft 444 kts 175°
2026-04-26 12:01 41.03159 -8.65788 34122 ft 444 kts 175°
2026-04-26 12:01 40.97014 -8.65029 34129 ft 443 kts 175°
2026-04-26 12:02 40.90878 -8.64273 34136 ft 443 kts 175°
2026-04-26 12:02 40.84745 -8.63518 34132 ft 443 kts 175°
2026-04-26 12:03 40.78608 -8.62764 34132 ft 443 kts 175°
2026-04-26 12:03 40.72473 -8.62012 34128 ft 443 kts 175°
2026-04-26 12:04 40.66335 -8.61262 34129 ft 443 kts 175°
2026-04-26 12:04 40.60188 -8.60513 34128 ft 443 kts 175°
2026-04-26 12:05 40.54042 -8.59764 34126 ft 443 kts 175°
2026-04-26 12:05 40.47933 -8.59022 34126 ft 444 kts 175°
2026-04-26 12:06 40.41784 -8.58277 34122 ft 444 kts 175°
2026-04-26 12:06 40.35638 -8.57533 34113 ft 443 kts 176°
2026-04-26 12:07 40.29492 -8.56790 34116 ft 443 kts 175°
2026-04-26 12:07 40.23347 -8.56049 34119 ft 443 kts 175°
2026-04-26 12:08 40.17199 -8.55309 34117 ft 444 kts 175°
2026-04-26 12:08 40.11049 -8.54570 34116 ft 444 kts 176°
2026-04-26 12:09 40.04903 -8.53832 34116 ft 444 kts 176°
2026-04-26 12:09 39.98752 -8.53095 34114 ft 444 kts 176°
2026-04-26 12:10 39.92595 -8.52360 34106 ft 445 kts 175°
2026-04-26 12:10 39.86432 -8.51625 34106 ft 445 kts 176°
2026-04-26 12:11 39.80268 -8.50890 34100 ft 445 kts 175°
2026-04-26 12:11 39.74102 -8.50157 34100 ft 445 kts 175°
2026-04-26 12:12 39.67930 -8.49634 34079 ft 443 kts 187°
2026-04-26 12:12 39.64948 -8.50511 34099 ft 441 kts 201°
2026-04-26 12:12 39.62096 -8.51987 34092 ft 442 kts 202°
2026-04-26 12:13 39.56455 -8.55045 34092 ft 442 kts 204°
2026-04-26 12:13 39.50805 -8.58216 34090 ft 443 kts 204°
2026-04-26 12:14 39.45161 -8.61406 34090 ft 442 kts 204°
2026-04-26 12:14 39.39520 -8.64592 34093 ft 443 kts 204°
2026-04-26 12:15 39.33875 -8.67775 34089 ft 442 kts 204°
2026-04-26 12:15 39.28230 -8.70951 34090 ft 443 kts 204°
2026-04-26 12:16 39.22582 -8.74123 34091 ft 443 kts 204°
2026-04-26 12:16 39.16931 -8.77292 34092 ft 443 kts 204°
2026-04-26 12:17 39.11275 -8.80459 34091 ft 443 kts 204°
2026-04-26 12:17 39.05914 -8.83454 34091 ft 443 kts 204°
2026-04-26 12:18 39.00253 -8.86613 34084 ft 443 kts 204°
2026-04-26 12:18 38.94589 -8.89767 34083 ft 444 kts 204°
2026-04-26 12:19 38.88951 -8.92901 34075 ft 444 kts 204°
2026-04-26 12:19 38.83280 -8.96048 34078 ft 444 kts 205°
2026-04-26 12:20 38.77612 -8.99189 34072 ft 444 kts 204°
2026-04-26 12:20 38.71935 -9.02328 34076 ft 444 kts 204°
2026-04-26 12:21 38.66259 -9.05461 34087 ft 444 kts 205°
2026-04-26 12:21 38.60576 -9.08594 34071 ft 445 kts 205°
2026-04-26 12:22 38.54889 -9.11723 34083 ft 444 kts 205°
2026-04-26 12:22 38.49204 -9.14845 34084 ft 445 kts 205°
2026-04-26 12:23 38.43523 -9.17974 34090 ft 445 kts 207°
2026-04-26 12:23 38.40953 -9.20023 34089 ft 440 kts 219°
2026-04-26 12:23 38.38503 -9.22393 34084 ft 442 kts 217°
2026-04-26 12:24 38.33567 -9.27076 34092 ft 442 kts 218°
2026-04-26 12:24 38.28643 -9.31790 34097 ft 443 kts 218°
2026-04-26 12:25 38.21259 -9.38852 34098 ft 443 kts 218°
2026-04-26 12:25 38.16337 -9.43549 34098 ft 443 kts 218°
2026-04-26 12:26 38.11409 -9.48245 34102 ft 443 kts 218°
2026-04-26 12:26 38.06481 -9.52933 34104 ft 443 kts 218°
2026-04-26 12:27 38.01550 -9.57616 34101 ft 442 kts 218°
2026-04-26 12:27 37.96616 -9.62279 34106 ft 443 kts 218°
2026-04-26 12:28 37.91681 -9.66933 34100 ft 442 kts 218°
2026-04-26 12:28 37.86741 -9.71586 34104 ft 442 kts 218°
2026-04-26 12:29 37.81805 -9.76227 34107 ft 442 kts 217°
2026-04-26 12:30 37.74398 -9.83175 34108 ft 442 kts 217°
2026-04-26 12:30 37.69466 -9.87793 34105 ft 441 kts 217°
2026-04-26 12:31 37.62065 -9.94706 34107 ft 441 kts 217°
2026-04-26 12:31 37.57138 -9.99299 34106 ft 440 kts 217°
2026-04-26 12:32 37.52218 -10.03878 34104 ft 440 kts 217°
2026-04-26 12:33 37.44874 -10.10698 34107 ft 439 kts 217°
2026-04-26 12:33 37.39963 -10.15250 34108 ft 439 kts 217°
2026-04-26 12:34 37.35045 -10.19800 34107 ft 438 kts 217°
2026-04-26 12:34 37.30127 -10.24342 34110 ft 438 kts 217°
2026-04-26 12:35 37.25216 -10.28871 34106 ft 438 kts 217°
2026-04-26 12:35 37.20300 -10.33396 34109 ft 438 kts 217°
2026-04-26 12:36 37.15387 -10.37913 34111 ft 438 kts 216°
2026-04-26 12:36 37.10471 -10.42423 34112 ft 438 kts 216°
2026-04-26 12:37 37.05554 -10.46927 34107 ft 438 kts 216°
2026-04-26 12:37 37.00668 -10.51397 34105 ft 438 kts 216°
2026-04-26 12:38 36.95749 -10.55888 34110 ft 438 kts 216°
2026-04-26 12:38 36.90827 -10.60375 34109 ft 438 kts 216°
2026-04-26 12:39 36.85893 -10.64865 34108 ft 438 kts 216°
2026-04-26 12:39 36.80967 -10.69340 34107 ft 438 kts 216°
2026-04-26 12:40 36.76041 -10.73810 34109 ft 438 kts 216°
2026-04-26 12:40 36.71112 -10.78274 34107 ft 437 kts 216°
2026-04-26 12:41 36.66181 -10.82733 34109 ft 438 kts 216°
2026-04-26 12:41 36.61251 -10.87183 34108 ft 437 kts 216°
2026-04-26 12:42 36.56328 -10.91620 34110 ft 437 kts 216°
2026-04-26 12:42 36.51403 -10.96052 34111 ft 438 kts 216°
2026-04-26 12:43 36.46494 -11.00462 34108 ft 438 kts 216°
2026-04-26 12:43 36.41555 -11.04891 34106 ft 438 kts 215°
2026-04-26 12:44 36.36611 -11.09320 34107 ft 438 kts 215°
2026-04-26 12:44 36.31664 -11.13743 34107 ft 439 kts 215°
2026-04-26 12:45 36.26713 -11.18162 34102 ft 438 kts 215°
2026-04-26 12:45 36.21764 -11.22573 34105 ft 439 kts 215°
2026-04-26 12:46 36.16805 -11.26985 34110 ft 439 kts 215°
2026-04-26 12:46 36.11843 -11.31396 34108 ft 439 kts 214°
2026-04-26 12:47 36.06881 -11.35799 34105 ft 439 kts 214°
2026-04-26 12:47 36.01922 -11.40192 34101 ft 439 kts 214°
2026-04-26 12:48 35.97799 -11.43839 34105 ft 438 kts 214°
2026-04-26 12:48 35.92838 -11.48201 34102 ft 438 kts 214°
2026-04-26 12:49 35.87876 -11.52563 34107 ft 438 kts 214°
2026-04-26 12:49 35.82109 -11.57625 34101 ft 437 kts 214°
2026-04-26 12:50 35.77953 -11.61266 34102 ft 438 kts 214°
2026-04-26 12:50 35.72987 -11.65610 34104 ft 438 kts 214°
2026-04-26 12:51 35.68023 -11.69948 34103 ft 438 kts 214°
2026-04-26 12:51 35.63086 -11.74254 34105 ft 438 kts 214°
2026-04-26 12:52 35.58080 -11.78614 34104 ft 438 kts 213°
2026-04-26 12:52 35.53142 -11.82907 34102 ft 438 kts 213°
2026-04-26 12:53 35.48160 -11.87233 34099 ft 439 kts 213°
2026-04-26 12:53 35.43175 -11.91554 34103 ft 439 kts 213°
2026-04-26 12:54 35.38184 -11.95874 34102 ft 439 kts 213°
2026-04-26 12:54 35.33187 -12.00193 34097 ft 440 kts 213°
2026-04-26 12:55 35.28186 -12.04508 34102 ft 439 kts 213°
2026-04-26 12:55 35.23188 -12.08813 34101 ft 440 kts 213°
2026-04-26 12:56 35.18184 -12.13118 34100 ft 440 kts 213°
2026-04-26 12:56 35.13183 -12.17413 34099 ft 440 kts 213°
2026-04-26 12:57 35.08178 -12.21706 34099 ft 439 kts 213°
2026-04-26 12:57 35.03178 -12.25987 34098 ft 439 kts 213°
2026-04-26 12:58 34.95709 -12.32370 34096 ft 439 kts 213°
2026-04-26 12:58 34.90705 -12.36639 34100 ft 439 kts 213°
2026-04-26 12:59 34.85705 -12.40898 34099 ft 439 kts 213°
2026-04-26 12:59 34.80702 -12.45152 34104 ft 438 kts 213°
2026-04-26 13:00 34.75707 -12.49394 34099 ft 438 kts 213°
2026-04-26 13:00 34.70709 -12.53631 34099 ft 438 kts 213°
2026-04-26 13:01 34.65713 -12.57861 34097 ft 437 kts 213°
2026-04-26 13:01 34.60713 -12.62089 34098 ft 437 kts 213°
2026-04-26 13:02 34.55719 -12.66304 34094 ft 437 kts 213°
2026-04-26 13:02 34.50722 -12.70515 34094 ft 437 kts 213°
2026-04-26 13:03 34.45728 -12.74719 34097 ft 437 kts 213°
2026-04-26 13:03 34.40732 -12.78917 34102 ft 437 kts 213°
2026-04-26 13:04 34.35736 -12.83110 34096 ft 436 kts 212°
2026-04-26 13:04 34.30747 -12.87292 34098 ft 436 kts 213°
2026-04-26 13:05 34.25721 -12.91398 34091 ft 434 kts 207°
2026-04-26 13:05 34.20511 -12.95009 34095 ft 434 kts 208°
2026-04-26 13:06 34.15289 -12.98704 34092 ft 435 kts 208°
2026-04-26 13:06 34.10066 -13.02412 34092 ft 436 kts 208°
2026-04-26 13:07 34.04840 -13.06118 34091 ft 436 kts 208°
2026-04-26 13:07 33.99604 -13.09825 34092 ft 436 kts 208°
2026-04-26 13:08 33.94365 -13.13530 34090 ft 437 kts 208°
2026-04-26 13:08 33.89124 -13.17229 34092 ft 437 kts 208°
2026-04-26 13:09 33.83878 -13.20928 34094 ft 437 kts 208°
2026-04-26 13:09 33.78627 -13.24624 34094 ft 437 kts 208°
2026-04-26 13:10 33.73377 -13.28315 34094 ft 437 kts 208°
2026-04-26 13:10 33.68128 -13.31999 34089 ft 437 kts 208°
2026-04-26 13:11 33.62886 -13.35674 34089 ft 436 kts 208°
2026-04-26 13:11 33.57641 -13.39345 34091 ft 436 kts 208°
2026-04-26 13:12 33.52396 -13.43011 34088 ft 436 kts 209°
2026-04-26 13:12 33.47188 -13.46646 34085 ft 436 kts 209°
2026-04-26 13:13 33.41949 -13.50298 34085 ft 436 kts 209°
2026-04-26 13:13 33.36707 -13.53946 34086 ft 436 kts 209°
2026-04-26 13:14 33.31460 -13.57593 34084 ft 436 kts 209°
2026-04-26 13:14 33.26218 -13.61231 34082 ft 436 kts 210°
2026-04-26 13:15 33.20979 -13.64862 34083 ft 435 kts 210°
2026-04-26 13:15 33.16590 -13.67900 34080 ft 435 kts 210°
2026-04-26 13:16 33.10502 -13.72109 34081 ft 435 kts 210°
2026-04-26 13:16 33.05265 -13.75722 34084 ft 435 kts 210°
2026-04-26 13:17 32.97406 -13.81137 34084 ft 435 kts 210°
2026-04-26 13:18 32.89539 -13.86546 34081 ft 435 kts 210°
2026-04-26 13:19 32.81676 -13.91941 34083 ft 435 kts 210°
2026-04-26 13:19 32.76428 -13.95536 34078 ft 435 kts 210°
2026-04-26 13:20 32.71219 -13.99099 34079 ft 435 kts 210°
2026-04-26 13:20 32.65966 -14.02687 34077 ft 435 kts 210°
2026-04-26 13:21 32.60719 -14.06267 34073 ft 435 kts 210°
2026-04-26 13:21 32.55465 -14.09845 34080 ft 435 kts 211°
2026-04-26 13:22 32.50216 -14.13416 34078 ft 435 kts 211°
2026-04-26 13:22 32.44961 -14.16986 34075 ft 436 kts 211°
2026-04-26 13:23 32.39694 -14.20561 34074 ft 435 kts 211°
2026-04-26 13:23 32.34434 -14.24124 34074 ft 436 kts 211°
2026-04-26 13:24 32.29213 -14.27666 34075 ft 435 kts 212°
2026-04-26 13:24 32.26798 -14.29704 34067 ft 433 kts 223°
2026-04-26 13:24 32.24603 -14.32133 34068 ft 434 kts 223°
2026-04-26 13:25 32.20110 -14.36891 34072 ft 434 kts 222°
2026-04-26 13:25 32.15607 -14.41620 34077 ft 433 kts 222°
2026-04-26 13:26 32.11102 -14.46341 34076 ft 433 kts 222°
2026-04-26 13:26 32.06597 -14.51056 34077 ft 433 kts 222°
2026-04-26 13:27 32.02097 -14.55759 34078 ft 432 kts 222°
2026-04-26 13:27 31.97591 -14.60462 34078 ft 432 kts 222°
2026-04-26 13:28 31.93093 -14.65150 34079 ft 431 kts 222°
2026-04-26 13:28 31.88594 -14.69833 34078 ft 431 kts 222°
2026-04-26 13:29 31.84127 -14.74477 34075 ft 431 kts 222°
2026-04-26 13:29 31.79635 -14.79140 34075 ft 431 kts 222°
2026-04-26 13:30 31.75141 -14.83799 34079 ft 431 kts 222°
2026-04-26 13:30 31.70645 -14.88453 34079 ft 431 kts 222°
2026-04-26 13:31 31.66143 -14.93108 34078 ft 431 kts 221°
2026-04-26 13:31 31.61647 -14.97751 34079 ft 430 kts 221°
2026-04-26 13:32 31.57151 -15.02386 34081 ft 430 kts 221°
2026-04-26 13:32 31.52652 -15.07020 34082 ft 430 kts 221°
2026-04-26 13:33 31.48154 -15.11645 34079 ft 430 kts 221°
2026-04-26 13:33 31.43653 -15.16268 34079 ft 430 kts 221°
2026-04-26 13:34 31.39149 -15.20887 34078 ft 430 kts 221°
2026-04-26 13:34 31.34649 -15.25497 34082 ft 430 kts 221°
2026-04-26 13:35 31.30110 -15.30050 34077 ft 430 kts 215°
2026-04-26 13:35 31.24893 -15.33466 34079 ft 430 kts 210°
2026-04-26 13:36 31.19670 -15.36816 34083 ft 431 kts 210°
2026-04-26 13:36 31.14411 -15.40170 34083 ft 431 kts 209°
2026-04-26 13:37 31.10005 -15.42975 34078 ft 431 kts 210°
2026-04-26 13:37 31.04738 -15.46325 34077 ft 431 kts 210°
2026-04-26 13:38 30.99480 -15.49665 34081 ft 431 kts 209°
2026-04-26 13:38 30.94213 -15.53006 34080 ft 431 kts 209°
2026-04-26 13:39 30.88956 -15.56337 34079 ft 431 kts 209°
2026-04-26 13:39 30.83726 -15.59646 34079 ft 430 kts 209°
2026-04-26 13:40 30.78460 -15.62973 34079 ft 430 kts 209°
2026-04-26 13:40 30.73199 -15.66294 34076 ft 430 kts 209°
2026-04-26 13:41 30.67934 -15.69613 34078 ft 430 kts 209°
2026-04-26 13:41 30.62677 -15.72923 34080 ft 430 kts 209°
2026-04-26 13:42 30.57419 -15.76230 34081 ft 430 kts 209°
2026-04-26 13:42 30.52154 -15.79537 34080 ft 430 kts 209°
2026-04-26 13:43 30.46880 -15.82845 34080 ft 431 kts 209°
2026-04-26 13:43 30.41606 -15.86148 34075 ft 431 kts 209°
2026-04-26 13:44 30.36329 -15.89450 34080 ft 431 kts 209°
2026-04-26 13:44 30.31052 -15.92748 34080 ft 431 kts 209°
2026-04-26 13:45 30.25772 -15.96043 34077 ft 431 kts 209°
2026-04-26 13:45 30.20494 -15.99333 34074 ft 431 kts 209°
2026-04-26 13:46 30.15212 -16.02621 34074 ft 431 kts 209°
2026-04-26 13:46 30.09928 -16.05907 34076 ft 431 kts 209°
2026-04-26 13:47 30.04689 -16.09162 34074 ft 431 kts 209°
2026-04-26 13:47 29.99437 -16.12419 33507 ft 425 kts 209°
2026-04-26 13:47 29.96821 -16.14040 32619 ft 429 kts 209°
2026-04-26 13:48 29.94186 -16.15673 31776 ft 432 kts 209°
2026-04-26 13:48 29.91522 -16.17322 30933 ft 436 kts 208°
2026-04-26 13:48 29.88841 -16.18980 30093 ft 439 kts 208°
2026-04-26 13:48 29.86137 -16.20652 29113 ft 443 kts 208°
2026-04-26 13:49 29.83414 -16.22335 28162 ft 445 kts 208°
2026-04-26 13:49 29.80673 -16.24027 27224 ft 448 kts 208°
2026-04-26 13:49 29.77920 -16.25726 26289 ft 451 kts 208°
2026-04-26 13:49 29.75144 -16.27438 25355 ft 453 kts 208°
2026-04-26 13:50 29.72358 -16.29155 24481 ft 455 kts 208°
2026-04-26 13:50 29.69580 -16.30866 23877 ft 450 kts 208°
2026-04-26 13:50 29.66832 -16.32557 23082 ft 447 kts 208°
2026-04-26 13:50 29.64101 -16.34238 22346 ft 443 kts 208°
2026-04-26 13:51 29.61383 -16.35900 21598 ft 440 kts 206°
2026-04-26 13:51 29.58498 -16.36992 20875 ft 438 kts 189°
2026-04-26 13:51 29.55468 -16.37013 20160 ft 435 kts 174°
2026-04-26 13:51 29.52464 -16.36650 19443 ft 433 kts 175°
2026-04-26 13:52 29.49474 -16.36335 18799 ft 430 kts 175°
2026-04-26 13:52 29.46505 -16.36033 18098 ft 427 kts 175°
2026-04-26 13:52 29.43553 -16.35737 17408 ft 423 kts 175°
2026-04-26 13:52 29.40628 -16.35446 16706 ft 420 kts 175°
2026-04-26 13:53 29.37728 -16.35158 16061 ft 417 kts 174°
2026-04-26 13:53 29.34849 -16.34871 15388 ft 414 kts 174°
2026-04-26 13:53 29.31990 -16.34588 14761 ft 410 kts 174°
2026-04-26 13:53 29.29157 -16.34307 14119 ft 408 kts 174°
2026-04-26 13:54 29.26338 -16.34028 13469 ft 405 kts 174°
2026-04-26 13:54 29.23541 -16.33750 12830 ft 402 kts 174°
2026-04-26 13:54 29.20769 -16.33476 12196 ft 398 kts 174°
2026-04-26 13:55 29.15325 -16.32937 10995 ft 392 kts 173°
2026-04-26 13:55 29.13495 -16.32756 10605 ft 390 kts 173°
2026-04-26 13:55 29.07297 -16.32144 10082 ft 385 kts 173°
2026-04-26 13:56 29.04616 -16.31879 10062 ft 387 kts 173°
2026-04-26 13:56 29.01927 -16.31614 10068 ft 388 kts 173°
2026-04-26 13:56 28.99242 -16.31350 10074 ft 388 kts 173°
2026-04-26 13:56 28.96550 -16.31084 10070 ft 388 kts 174°
2026-04-26 13:57 28.93902 -16.30824 10051 ft 374 kts 173°
2026-04-26 13:57 28.91373 -16.30575 10030 ft 355 kts 173°
2026-04-26 13:57 28.90138 -16.30454 10008 ft 347 kts 174°
2026-04-26 13:58 28.88914 -16.30333 9989 ft 338 kts 173°
2026-04-26 13:58 28.86626 -16.30108 9942 ft 322 kts 173°
2026-04-26 13:58 28.84449 -16.29894 9883 ft 307 kts 173°
2026-04-26 13:58 28.82372 -16.29690 9819 ft 293 kts 173°
2026-04-26 13:59 28.80344 -16.29490 9354 ft 294 kts 173°
2026-04-26 13:59 28.78308 -16.29290 8950 ft 293 kts 173°
2026-04-26 13:59 28.76278 -16.29091 8568 ft 293 kts 173°
2026-04-26 14:00 28.70259 -16.28500 7467 ft 289 kts 173°
2026-04-26 14:00 28.68264 -16.28304 7106 ft 287 kts 173°
2026-04-26 14:00 28.66945 -16.28175 6885 ft 286 kts 173°
2026-04-26 14:01 28.64300 -16.27916 6395 ft 284 kts 173°
2026-04-26 14:01 28.62337 -16.27724 6030 ft 283 kts 173°
2026-04-26 14:01 28.60381 -16.27533 5635 ft 282 kts 173°
2026-04-26 14:01 28.58436 -16.27343 5315 ft 279 kts 173°
2026-04-26 14:02 28.56497 -16.27153 4912 ft 280 kts 174°
2026-04-26 14:02 28.54576 -16.26889 4506 ft 278 kts 162°
2026-04-26 14:02 28.52942 -16.25814 4303 ft 268 kts 134°
2026-04-26 14:02 28.51694 -16.24305 4217 ft 256 kts 131°
2026-04-26 14:03 28.50507 -16.22850 4144 ft 245 kts 130°
2026-04-26 14:03 28.49375 -16.21451 4029 ft 236 kts 129°
2026-04-26 14:03 28.48282 -16.20090 4023 ft 231 kts 129°
2026-04-26 14:03 28.47205 -16.18743 4019 ft 230 kts 129°
2026-04-26 14:04 28.46126 -16.17393 4021 ft 231 kts 129°
2026-04-26 14:04 28.45060 -16.16058 4021 ft 231 kts 129°
2026-04-26 14:04 28.43857 -16.14856 3983 ft 233 kts 154°
2026-04-26 14:04 28.42279 -16.14683 3986 ft 232 kts 198°
2026-04-26 14:05 28.41016 -16.15755 4038 ft 230 kts 242°
2026-04-26 14:05 28.40725 -16.17461 4018 ft 220 kts 287°
2026-04-26 14:05 28.41484 -16.18836 4018 ft 200 kts 326°
2026-04-26 14:05 28.42662 -16.19600 4047 ft 192 kts 333°
2026-04-26 14:06 28.43605 -16.20635 4003 ft 191 kts 305°
2026-04-26 14:06 28.44200 -16.21963 4022 ft 183 kts 297°
2026-04-26 14:06 28.44654 -16.23265 3820 ft 169 kts 296°
2026-04-26 14:06 28.45061 -16.24485 3627 ft 165 kts 296°
2026-04-26 14:07 28.45466 -16.25702 3415 ft 165 kts 295°
2026-04-26 14:07 28.45870 -16.26920 3184 ft 164 kts 295°
2026-04-26 14:07 28.46270 -16.28131 2947 ft 162 kts 295°
2026-04-26 14:07 28.46660 -16.29306 2726 ft 156 kts 295°
2026-04-26 14:08 28.47039 -16.30447 2500 ft 153 kts 295°
2026-04-26 14:08 28.47414 -16.31568 2298 ft 152 kts 293°
2026-04-26 14:08 28.47778 -16.32693 2075 ft 151 kts 292°
2026-04-26 14:08 28.48115 -16.33693 2043 ft 104 kts 290°
2026-04-26 14:09 28.48287 -16.34212 2058 ft 44 kts 291°
2026-04-26 14:09 28.48373 -16.34472 2067 ft 33 kts 290°
2026-04-26 14:09 28.48452 -16.34711 2077 ft 31 kts 290°
2026-04-26 14:09 28.48526 -16.34936 2089 ft 30 kts 290°
2026-04-26 14:10 28.48603 -16.35155 2089 ft 31 kts 298°
2026-04-26 14:10 28.48711 -16.35318 2083 ft 14 kts 331°
2026-04-26 14:10 28.48745 -16.35316 2080 ft 3 kts 38°
2026-04-26 14:10 28.48765 -16.35288 2089 ft 7 kts 58°
2026-04-26 14:11 28.48758 -16.35242 2079 ft 0 kts 132°
2026-04-26 14:11 28.48756 -16.35241 2079 ft 1 kts 133°
2026-04-26 14:11 28.48741 -16.35221 2081 ft 6 kts 128°
2026-04-26 14:12 28.48711 -16.35148 2084 ft 15 kts 111°
2026-04-26 14:12 28.48662 -16.35002 2086 ft 24 kts 109°
2026-04-26 14:12 28.48642 -16.34881 2083 ft 11 kts 62°
2026-04-26 14:12 28.48699 -16.34805 2078 ft 6 kts 48°
2026-04-26 14:13 28.48712 -16.34788 2076 ft 0 kts 48°